Weather History for Soldotna, AK

Change the Weather History Date:

Tuesday, November 29, 2011

  Actual Average Record
Temperature  
Mean Temperature 12 °F -  
Max Temperature 23 °F 25 °F 47 °F (1983)
Min Temperature 0 °F 11 °F -24 °F (1990)
Degree Days  
Heating Degree Days 54    
Moisture  
Dew Point 5 °F    
Average Humidity 88    
Maximum Humidity 100    
Minimum Humidity 61    
Precipitation  
Precipitation 0.00 in - - ()
Sea Level Pressure  
Sea Level Pressure 29.86 in    
Wind  
Wind Speed 4 mph (East)    
Max Wind Speed 8 mph    
Max Gust Speed -    
Visibility 8 miles    
Events      
Averages and records for this station are not official NWS values.
T = Trace of Precipitation, MM = Missing Value Source: NWS Daily Summary

Daily Weather History Graph

Daily Weather History Graph

Search for Another Location

Airport:

Trip Planner

Search our weather history database for the weather conditions in past years. The results will help you decide how hot, cold, wet, or windy it might be!

Date:

Astronomy

Nov. 29, 2011 Rise Set
Actual Time 9:38 AM AKST 4:05 PM AKST
Civil Twilight 8:43 AM AKST 5:00 PM AKST
Nautical Twilight 7:48 AM AKST 5:56 PM AKST
Astronomical Twilight 6:57 AM AKST 6:47 PM AKST
Moon 12:55 PM AKST (11/29) 9:51 PM AKST (11/29)
Length of Visible Light 8h 16m
Length of Day
6h 26m
Waxing Crescent, 25% of the Moon is Illuminated
Nov 29
Waxing Crescent
Dec 2
First Quarter
Dec 10
Full
Dec 17
Last Quarter
Dec 24
New

Hourly Weather History & Observations

Time (AKST) Temp. Windchill Dew Point Humidity Pressure Visibility Wind Dir Wind Speed Gust Speed Precip Events Conditions
12:16 AM 21.2 °F 16.4 °F 17.6 °F 86% 29.68 in 10.0 mi SSE 3.5 mph - N/A   Scattered Clouds
12:36 AM 17.6 °F 12.3 °F 15.8 °F 93% 29.69 in 10.0 mi South 3.5 mph - N/A   Clear
12:56 AM 21.2 °F 14.9 °F 17.6 °F 86% 29.70 in 10.0 mi South 4.6 mph - N/A   Partly Cloudy
1:16 AM 23.0 °F 15.8 °F 17.6 °F 80% 29.71 in 10.0 mi South 5.8 mph - N/A   Clear
1:36 AM 17.6 °F 10.7 °F 10.4 °F 73% 29.72 in 10.0 mi South 4.6 mph - N/A   Clear
1:56 AM 17.6 °F - 15.8 °F 93% 29.73 in 10.0 mi Calm Calm - N/A   Clear
2:16 AM 12.2 °F 2.9 °F 10.4 °F 92% 29.74 in 10.0 mi East 5.8 mph - N/A   Clear
2:36 AM 8.6 °F 0.1 °F 5.0 °F 85% 29.75 in 10.0 mi East 4.6 mph - N/A   Partly Cloudy
2:56 AM 8.6 °F - 8.6 °F 100% 29.76 in 9.0 mi Calm Calm - N/A   Scattered Clouds
3:16 AM 8.6 °F 0.1 °F 6.8 °F 92% 29.77 in 9.0 mi East 4.6 mph - N/A   Scattered Clouds
3:36 AM 8.6 °F 0.1 °F 3.2 °F 79% 29.79 in 8.0 mi East 4.6 mph - N/A   Clear
3:56 AM 6.8 °F -2.0 °F 3.2 °F 85% 29.80 in 8.0 mi East 4.6 mph - N/A   Clear
4:16 AM 3.2 °F - -2.2 °F 78% 29.81 in 8.0 mi Calm Calm - N/A   Clear
4:36 AM 5.0 °F -2.1 °F 5.0 °F 100% 29.82 in 8.0 mi ENE 3.5 mph - N/A   Clear
4:56 AM 5.0 °F -2.1 °F 1.4 °F 85% 29.82 in 8.0 mi ENE 3.5 mph - N/A   Clear
5:16 AM 3.2 °F -7.8 °F -0.4 °F 85% 29.83 in 8.0 mi ENE 5.8 mph - N/A   Clear
5:36 AM 3.2 °F -6.2 °F -0.4 °F 85% 29.83 in 8.0 mi ENE 4.6 mph - N/A   Clear
5:56 AM 3.2 °F -6.2 °F -0.4 °F 85% 29.84 in 8.0 mi ENE 4.6 mph - N/A   Clear
6:16 AM 1.4 °F - -9.4 °F 61% 29.85 in 8.0 mi Calm Calm - N/A   Clear
6:36 AM 1.4 °F -8.3 °F -2.2 °F 85% 29.86 in 8.0 mi ENE 4.6 mph - N/A   Clear
6:56 AM 1.4 °F -6.2 °F -0.4 °F 92% 29.88 in 8.0 mi NE 3.5 mph - N/A   Clear
7:16 AM -0.4 °F -8.3 °F -0.4 °F 100% 29.89 in 8.0 mi ENE 3.5 mph - N/A   Clear
7:36 AM 1.4 °F -8.3 °F 1.4 °F 100% 29.90 in 8.0 mi East 4.6 mph - N/A   Clear
7:56 AM 1.4 °F -8.3 °F -0.4 °F 92% 29.91 in 8.0 mi ENE 4.6 mph - N/A   Clear
8:16 AM 1.4 °F -8.3 °F -5.8 °F 72% 29.91 in 8.0 mi ENE 4.6 mph - N/A   Clear
8:36 AM 3.2 °F -6.2 °F -0.4 °F 85% 29.91 in 8.0 mi ENE 4.6 mph - N/A   Clear
8:56 AM -0.4 °F -10.4 °F -4.0 °F 85% 29.91 in 8.0 mi East 4.6 mph - N/A   Clear
9:16 AM 3.2 °F -4.2 °F 3.2 °F 100% 29.92 in 8.0 mi East 3.5 mph - N/A   Clear
9:36 AM 1.4 °F -8.3 °F -2.2 °F 85% 29.93 in 7.0 mi ENE 4.6 mph - N/A   Clear
9:56 AM 1.4 °F -8.3 °F -2.2 °F 85% 29.94 in 7.0 mi ENE 4.6 mph - N/A   Clear
10:16 AM -0.4 °F -8.3 °F -5.8 °F 78% 29.95 in 5.0 mi ENE 3.5 mph - N/A   Clear
10:36 AM 1.4 °F -8.3 °F 1.4 °F 100% 29.95 in 7.0 mi ENE 4.6 mph - N/A   Clear
10:56 AM 1.4 °F -6.2 °F -0.4 °F 92% 29.95 in 7.0 mi ENE 3.5 mph - N/A   Clear
11:16 AM 1.4 °F -8.3 °F -0.4 °F 92% 29.95 in 7.0 mi East 4.6 mph - N/A   Clear
11:36 AM -0.4 °F - -4.0 °F 85% 29.97 in 7.0 mi Calm Calm - N/A   Clear
11:56 AM 1.4 °F -6.2 °F -2.2 °F 85% 29.97 in 7.0 mi East 3.5 mph - N/A   Clear
12:16 PM 3.2 °F -4.2 °F 3.2 °F 100% 29.98 in 7.0 mi ENE 3.5 mph - N/A   Clear
12:36 PM 5.0 °F -2.1 °F 1.4 °F 85% 29.96 in 7.0 mi ENE 3.5 mph - N/A   Clear
12:56 PM 6.8 °F -0.1 °F 1.4 °F 79% 29.97 in 7.0 mi East 3.5 mph - N/A   Clear
1:16 PM 6.8 °F - 3.2 °F 85% 29.97 in 7.0 mi Calm Calm - N/A   Clear
1:36 PM 6.8 °F -2.0 °F 5.0 °F 92% 29.97 in 7.0 mi East 4.6 mph - N/A   Mostly Cloudy
1:56 PM 8.6 °F 2.0 °F 6.8 °F 92% 29.96 in 7.0 mi ENE 3.5 mph - N/A   Overcast
2:16 PM 8.6 °F - 6.8 °F 92% 29.96 in 7.0 mi Calm Calm - N/A   Overcast
2:36 PM 10.4 °F 4.0 °F 6.8 °F 85% 29.94 in 7.0 mi ESE 3.5 mph - N/A   Overcast
2:56 PM 10.4 °F 2.2 °F 8.6 °F 92% 29.93 in 7.0 mi East 4.6 mph - N/A   Overcast
3:16 PM 10.4 °F 4.0 °F 8.6 °F 92% 29.91 in 7.0 mi ESE 3.5 mph - N/A   Overcast
3:36 PM 10.4 °F 4.0 °F 8.6 °F 92% 29.90 in 7.0 mi East 3.5 mph - N/A   Overcast
3:56 PM 12.2 °F 4.3 °F 8.6 °F 85% 29.88 in 7.0 mi ESE 4.6 mph - N/A   Overcast
4:16 PM 14.0 °F 8.2 °F 10.4 °F 86% 29.87 in 7.0 mi ESE 3.5 mph - N/A   Overcast
4:36 PM 14.0 °F 8.2 °F 10.4 °F 86% 29.85 in 8.0 mi East 3.5 mph - N/A   Overcast
4:56 PM 17.6 °F 9.3 °F 15.8 °F 93% 29.83 in 9.0 mi NE 5.8 mph - N/A   Overcast
5:16 PM 17.6 °F 12.3 °F 15.8 °F 93% 29.82 in 9.0 mi NE 3.5 mph - N/A   Overcast
5:36 PM 19.4 °F 12.8 °F 17.6 °F 93% 29.82 in 9.0 mi NE 4.6 mph - N/A   Overcast
5:56 PM 19.4 °F 9.5 °F 17.6 °F 93% 29.79 in 8.0 mi NE 8.1 mph - N/A   Overcast
6:16 PM 19.4 °F 12.8 °F 17.6 °F 93% 29.78 in 8.0 mi NE 4.6 mph - N/A   Overcast
6:36 PM 21.2 °F 13.6 °F 17.6 °F 86% 29.76 in 8.0 mi NNE 5.8 mph - N/A   Overcast
6:56 PM 21.2 °F 13.6 °F 19.4 °F 93% 29.76 in 8.0 mi NE 5.8 mph - N/A   Overcast
7:16 PM 21.2 °F 12.6 °F 19.4 °F 93% 29.73 in 9.0 mi NNE 6.9 mph - N/A   Overcast
7:36 PM 21.2 °F 10.9 °F 19.4 °F 93% 29.71 in 10.0 mi ENE 9.2 mph - N/A   Overcast
7:56 PM 21.2 °F 13.6 °F 19.4 °F 93% 29.70 in 10.0 mi NE 5.8 mph - N/A   Overcast
8:16 PM 21.2 °F 14.9 °F 19.4 °F 93% 29.70 in 10.0 mi NE 4.6 mph - N/A   Overcast
8:36 PM 21.2 °F 16.4 °F 19.4 °F 93% 29.70 in 10.0 mi North 3.5 mph - N/A   Overcast
8:56 PM 23.0 °F - 19.4 °F 86% 29.69 in 10.0 mi Calm Calm - N/A   Overcast
9:16 PM 23.0 °F 15.8 °F 19.4 °F 86% 29.68 in 10.0 mi North 5.8 mph - N/A   Overcast
9:36 PM 23.0 °F 14.7 °F 19.4 °F 86% 29.68 in 10.0 mi NNE 6.9 mph - N/A   Mostly Cloudy
9:56 PM 23.0 °F 15.8 °F 19.4 °F 86% 29.68 in 2.0 mi NE 5.8 mph - N/A   Overcast
10:16 PM 23.0 °F 15.8 °F 21.2 °F 93% 29.66 in 0.8 mi NE 5.8 mph - N/A   Overcast
10:36 PM 23.0 °F 17.0 °F 21.2 °F 93% 29.65 in 1.5 mi ENE 4.6 mph - N/A   Overcast
11:16 PM 23.0 °F - 21.2 °F 93% 29.66 in 10.0 mi Calm Calm - N/A   Overcast
11:36 PM 23.0 °F 18.4 °F 21.2 °F 93% 29.66 in 10.0 mi NE 3.5 mph - N/A   Overcast
11:56 PM 24.8 °F 17.9 °F 21.2 °F 86% 29.67 in 10.0 mi NE 5.8 mph - N/A   Overcast